When you browse on this site, cookies collect data to enhance your experience and personalize the content and advertising you see.
Visit our Privacy Policy to learn more. By continuing to use the site, you agree to this use of cookies and data.
  • In Romania
  • List of Countries
  • For 7 days
  • Water Temperature
  • Satellite Maps
  • Weather Map
  • Weather Widgets
  • user-avatar
    Login

    Hourly Weather Nizhnyaya Aleksandrovka

    Today, 17 November, Saturday

    Time Temperature Precipitation Wind Pressure Humidity
    00:00 +2°C° 0.1 mm 6 mps 737 mmHg 88%
    01:00 +2°C° 0 mm 6 mps 737 mmHg 88%
    02:00 +2°C° 0 mm 5 mps 738 mmHg 88%
    03:00 +2°C° 0 mm 3 mps 738 mmHg 86%
    04:00 +2°C° 0.1 mm 3 mps 738 mmHg 87%
    05:00 +1°C° 0.1 mm 4 mps 738 mmHg 88%
    06:00 +1°C° 0.1 mm 4 mps 738 mmHg 89%
    07:00 +1°C° 0.4 mm 4 mps 738 mmHg 89%
    08:00 +1°C° 0.4 mm 4 mps 738 mmHg 90%
    09:00 +1°C° 0 mm 4 mps 739 mmHg 90%
    10:00 +2°C° 1.3 mm 3 mps 739 mmHg 91%
    11:00 +2°C° 1.3 mm 3 mps 739 mmHg 93%
    12:00 +3°C° 1.3 mm 2 mps 739 mmHg 95%
    13:00 +3°C° 0.3 mm 2 mps 740 mmHg 95%
    14:00 +3°C° 0.3 mm 2 mps 740 mmHg 95%
    15:00 +4°C° 0 mm 1 mps 740 mmHg 96%
    16:00 +4°C° 0 mm 1 mps 740 mmHg 95%
    17:00 +4°C° 0 mm 1 mps 740 mmHg 95%
    18:00 +4°C° 0 mm 1 mps 740 mmHg 95%
    19:00 +4°C° 0 mm 1 mps 740 mmHg 95%
    20:00 +4°C° 0 mm 1 mps 740 mmHg 95%
    21:00 +4°C° 0 mm 1 mps 740 mmHg 94%
    22:00 +3°C° 0.2 mm 0 mps 740 mmHg 94%
    23:00 +3°C° 0.2 mm 0 mps 740 mmHg 94%

    Tomorrow, 18 November, Sunday

    Time Temperature Precipitation Wind Pressure Humidity
    00:00 +3°C° 0.2 mm 0 mps 740 mmHg 94%
    01:00 +3°C° 0.3 mm 0 mps 740 mmHg 94%
    02:00 +3°C° 0.3 mm 0 mps 740 mmHg 94%
    03:00 +3°C° 0.3 mm 0 mps 740 mmHg 94%
    04:00 +3°C° 0.1 mm 0 mps 739 mmHg 93%
    05:00 +3°C° 0.1 mm 0 mps 739 mmHg 93%
    06:00 +3°C° 0.1 mm 0 mps 739 mmHg 93%
    07:00 +4°C° 0.1 mm 0 mps 739 mmHg 92%
    08:00 +4°C° 0.1 mm 0 mps 739 mmHg 91%
    09:00 +4°C° 0.1 mm 0 mps 739 mmHg 90%
    10:00 +5°C° 0 mm 0 mps 738 mmHg 86%
    11:00 +6°C° 0 mm 0 mps 738 mmHg 83%
    12:00 +7°C° 0 mm 0 mps 738 mmHg 80%
    13:00 +7°C° 0 mm 0 mps 738 mmHg 80%
    14:00 +8°C° 0 mm 1 mps 738 mmHg 80%
    15:00 +9°C° 0 mm 1 mps 738 mmHg 80%
    16:00 +8°C° 0 mm 1 mps 738 mmHg 83%
    17:00 +7°C° 0 mm 1 mps 738 mmHg 87%
    18:00 +7°C° 0 mm 1 mps 739 mmHg 90%
    19:00 +6°C° 0 mm 1 mps 739 mmHg 91%
    20:00 +6°C° 0 mm 1 mps 738 mmHg 92%
    21:00 +6°C° 0 mm 1 mps 738 mmHg 92%
    22:00 +6°C° 0 mm 1 mps 738 mmHg 93%
    23:00 +5°C° 0 mm 1 mps 738 mmHg 94%

    Day after tomorrow, 19 November, Monday

    Time Temperature Precipitation Wind Pressure Humidity
    00:00 +5°C° 0 mm 1 mps 738 mmHg 95%
    01:00 +4°C° 0 mm 2 mps 738 mmHg 95%
    02:00 +4°C° 0 mm 2 mps 738 mmHg 95%
    03:00 +4°C° 0 mm 2 mps 738 mmHg 95%
    04:00 +4°C° 0 mm 2 mps 738 mmHg 94%
    05:00 +4°C° 0 mm 2 mps 738 mmHg 94%
    06:00 +3°C° 0 mm 3 mps 738 mmHg 93%
    07:00 +3°C° 0 mm 3 mps 738 mmHg 91%
    08:00 +3°C° 0 mm 4 mps 738 mmHg 88%
    09:00 +4°C° 0 mm 4 mps 738 mmHg 86%
    10:00 +5°C° 0 mm 5 mps 738 mmHg 82%
    11:00 +5°C° 0 mm 5 mps 737 mmHg 78%
    12:00 +6°C° 0 mm 5 mps 737 mmHg 74%
    13:00 +6°C° 0 mm 5 mps 737 mmHg 74%
    14:00 +6°C° 0 mm 5 mps 736 mmHg 73%
    15:00 +6°C° 0 mm 5 mps 736 mmHg 73%
    16:00 +6°C° 0 mm 5 mps 736 mmHg 77%
    17:00 +5°C° 0 mm 5 mps 736 mmHg 80%
    18:00 +3°C° 0 mm 5 mps 736 mmHg 84%
    19:00 +3°C° 0 mm 5 mps 736 mmHg 85%
    20:00 +3°C° 0 mm 5 mps 736 mmHg 86%
    21:00 +2°C° 0 mm 5 mps 736 mmHg 86%
    22:00 +2°C° 0.1 mm 5 mps 736 mmHg 87%
    23:00 +2°C° 0.1 mm 5 mps 736 mmHg 87%

    20 November, Tuesday

    Time Temperature Precipitation Wind Pressure Humidity
    00:00 +2°C° 0.1 mm 5 mps 736 mmHg 88%
    01:00 +3°C° 0.1 mm 4 mps 736 mmHg 89%
    02:00 +3°C° 0.1 mm 4 mps 736 mmHg 90%
    03:00 +3°C° 0.1 mm 4 mps 736 mmHg 90%
    04:00 +3°C° 0.4 mm 3 mps 735 mmHg 91%
    05:00 +3°C° 0.4 mm 3 mps 735 mmHg 91%
    06:00 +4°C° 0.4 mm 3 mps 735 mmHg 91%
    07:00 +4°C° 0.4 mm 3 mps 735 mmHg 91%
    08:00 +4°C° 0.4 mm 3 mps 735 mmHg 90%
    09:00 +5°C° 0.4 mm 2 mps 735 mmHg 90%
    10:00 +5°C° 1.3 mm 2 mps 735 mmHg 90%
    11:00 +6°C° 1.3 mm 2 mps 735 mmHg 89%
    12:00 +6°C° 1.3 mm 2 mps 734 mmHg 89%
    13:00 +6°C° 0.7 mm 2 mps 734 mmHg 89%
    14:00 +7°C° 0.7 mm 2 mps 734 mmHg 88%
    15:00 +7°C° 0.7 mm 2 mps 734 mmHg 88%
    16:00 +7°C° 0.1 mm 2 mps 734 mmHg 89%
    17:00 +7°C° 0.1 mm 2 mps 735 mmHg 89%
    18:00 +6°C° 0.1 mm 2 mps 735 mmHg 90%
    19:00 +7°C° 0.2 mm 1 mps 735 mmHg 91%
    20:00 +7°C° 0.2 mm 1 mps 735 mmHg 91%
    21:00 +7°C° 0.2 mm 1 mps 735 mmHg 92%
    22:00 +7°C° 0.2 mm 1 mps 735 mmHg 92%
    23:00 +7°C° 0.2 mm 1 mps 735 mmHg 91%

    21 November, Wednesday

    Time Temperature Precipitation Wind Pressure Humidity
    00:00 +7°C° 0.2 mm 1 mps 735 mmHg 91%
    01:00 +7°C° 0.1 mm 1 mps 735 mmHg 91%
    02:00 +6°C° 0.1 mm 2 mps 735 mmHg 90%
    03:00 +6°C° 0.1 mm 2 mps 735 mmHg 90%
    04:00 +6°C° 0 mm 2 mps 735 mmHg 90%
    05:00 +6°C° 0 mm 2 mps 735 mmHg 90%
    06:00 +6°C° 0 mm 2 mps 735 mmHg 90%
    07:00 +7°C° 0 mm 3 mps 735 mmHg 87%
    08:00 +7°C° 0 mm 3 mps 735 mmHg 85%
    09:00 +7°C° 0 mm 3 mps 735 mmHg 82%
    10:00 +8°C° 0 mm 3 mps 735 mmHg 78%
    11:00 +9°C° 0 mm 3 mps 735 mmHg 74%
    12:00 +8°C° 0 mm 4 mps 734 mmHg 69%
    13:00 +9°C° 0 mm 3 mps 734 mmHg 70%
    14:00 +9°C° 0 mm 3 mps 734 mmHg 71%
    15:00 +9°C° 0 mm 3 mps 734 mmHg 72%
    16:00 +9°C° 0 mm 2 mps 734 mmHg 75%
    17:00 +9°C° 0 mm 1 mps 734 mmHg 79%
    18:00 +8°C° 0 mm 1 mps 734 mmHg 83%
    19:00 +8°C° 0 mm 1 mps 734 mmHg 84%
    20:00 +8°C° 0 mm 1 mps 734 mmHg 86%
    21:00 +8°C° 0 mm 1 mps 734 mmHg 87%
    22:00 +7°C° 0 mm 1 mps 733 mmHg 88%
    23:00 +7°C° 0 mm 1 mps 733 mmHg 88%

    22 November, Thursday

    Time Temperature Precipitation Wind Pressure Humidity
    00:00 +7°C° 0 mm 1 mps 733 mmHg 89%
    01:00 +7°C° 0.1 mm 1 mps 733 mmHg 90%
    02:00 +6°C° 0.1 mm 2 mps 733 mmHg 90%
    03:00 +5°C° 0.1 mm 2 mps 732 mmHg 91%
    04:00 +5°C° 0.3 mm 2 mps 732 mmHg 91%
    05:00 +5°C° 0.3 mm 2 mps 732 mmHg 92%
    06:00 +5°C° 0.3 mm 2 mps 732 mmHg 92%
    07:00 +4°C° 0.3 mm 2 mps 732 mmHg 92%
    08:00 +3°C° 0.3 mm 3 mps 733 mmHg 91%
    09:00 +3°C° 0.3 mm 3 mps 733 mmHg 90%
    10:00 +3°C° 0.1 mm 3 mps 733 mmHg 88%
    11:00 +4°C° 0.1 mm 3 mps 732 mmHg 87%
    12:00 +4°C° 0.1 mm 3 mps 732 mmHg 85%
    13:00 +4°C° 0.1 mm 3 mps 732 mmHg 84%
    14:00 +4°C° 0.1 mm 3 mps 732 mmHg 83%
    15:00 +4°C° 0.1 mm 3 mps 732 mmHg 82%
    16:00 +5°C° 0.2 mm 2 mps 732 mmHg 83%
    17:00 +4°C° 0.2 mm 2 mps 733 mmHg 83%
    18:00 +4°C° 0.2 mm 2 mps 733 mmHg 84%
    19:00 +4°C° 0.1 mm 2 mps 733 mmHg 84%
    20:00 +3°C° 0.1 mm 2 mps 733 mmHg 84%
    21:00 +4°C° 0.1 mm 1 mps 734 mmHg 84%
    22:00 +4°C° 0 mm 1 mps 734 mmHg 83%
    23:00 +4°C° 0 mm 1 mps 734 mmHg 83%
    Show more